Location: Unspecified
(51.5147°N, 7.4673°E)
Time: 06:40:55
(UTC+01:00)

Transit 4A - Pass Details

Date: 24 February 2026
Orbit: 863 x 978 km, 66.8° (Epoch: 14 March)

Event Time Altitude Azimuth Distance (km) Brightness Sun altitude
Exits shadow 04:11:39 53° 351° (N) 1,112 8.3 -30.4°
Drops below altitude 10° 04:16:46 10° 35° (NE) 2,637 11.0 -29.7°
Sets 04:19:24 0° 39° (NE) 3,601 11.9 -29.3°
